Weather Roundup
Issued by NWS

Home | Current Version | Previous Version | Graphics & Text | Print | Product List | Glossary Off
Versions: 1 2 3 4 5 6 7 8 9 10 11 12 13 14 15 16 17 18 19 20 21 22 23 24 25 26 27 28 29 30 31 32 33 34 35 36 37 38 39 40 41 42 43 44 45 46 47 48 49 50

000
NZUS93 KARX 290659
HRRWXR

CURRENT HOURLY OBSERVATIONS ACROSS
MUCH OF THE UPPER MISSISSIPPI VALLEY
NATIONAL WEATHER SERVICE LA CROSSE WI
200 AM CDT WED MAR 29 2017


...SOUTHEAST MINNESOTA...


CITY           SKY/WX    TMP DP  RH WIND       PRES   REMARKS
ROCHESTER      CLOUDY    44  34  67 E9        30.18S
ROCHESTER/MAYO FAIR      44  36  72 E5        30.19R
WINONA         CLEAR     37  37 100 CALM      30.21S
AUSTIN         PTCLDY    39  36  87 CALM      30.18S
ALBERT LEA     MOCLDY    41  36  81 CALM      30.17F
DODGE CENTER   PTCLDY    39  34  81 E6        30.18S WCI  35
PRESTON        PTCLDY    43  35  72 E6        30.19S
OWATONNA       CLOUDY    39  34  81 E5        30.18S
FARIBAULT      PTCLDY    36  36 100 CALM      30.18S
$$

...ELSEWHERE IN MINNESOTA...


CITY           SKY/WX    TMP DP  RH WIND       PRES   REMARKS
MINNEAPOLIS    CLOUDY    44  34  67 E3        30.18S
INTNL FALLS    CLEAR     34  23  64 E5        30.26S WCI  30
DULUTH         CLEAR     36  26  67 E13       30.26S WCI  27
RED WING       CLOUDY    36  30  80 CALM      30.18S
REDWOOD FALLS  CLOUDY    46  32  58 E3        30.17R
MANKATO        CLOUDY    45  35  68 E3        30.18R
WORTHINGTON    CLOUDY    38  35  89 NE3       30.16R
FAIRMONT       CLOUDY    41  37  86 E5        30.16S
$$

...SOUTHWEST WISCONSIN...


CITY           SKY/WX    TMP DP  RH WIND       PRES   REMARKS
LA CROSSE      CLOUDY    43  34  70 S6        30.21R
PRAIRIE DU CHI PTCLDY    39  37  90 CALM      30.20R
BOSCOBEL       PTCLDY    37  35  92 CALM      30.21R
LONE ROCK      NOT AVBL
PLATTEVILLE    PTCLDY    40  38  93 E8        30.19S
FORT MC COY    CLOUDY    32  30  94 CALM      30.22S
MAUSTON-NEW LI CLOUDY    35  33  91 CALM      30.21S
VIROQUA        FAIR      40  33  77 CALM      30.19S
WIS DELLS      CLEAR     38  32  81 E5        30.21F WCI  34
$$

...ELSEWHERE IN WISCONSIN...


CITY           SKY/WX    TMP DP  RH WIND       PRES   REMARKS
MILWAUKEE      FOG       34  33  96 SW3       30.23S VSB 1/4
MADISON        CLEAR     35  32  88 SE6       30.22S WCI  30
GREEN BAY      CLEAR     35  34  96 NE9       30.25F WCI  28
EAU CLAIRE     NOT AVBL
BLACK RVR FLS  FAIR      31  31 100 CALM      30.21S
MEDFORD        CLEAR     32  28  86 E3        30.23R
WAUSAU         CLEAR     35  28  75 CALM      30.23S
WIS RAPIDS     CLOUDY    36  30  79 CALM      30.24R
MARSHFIELD     CLEAR     36  29  75 NE7       30.22R WCI  30
RICE LAKE      CLEAR     32  30  93 CALM      30.23R
$$

...NORTHEAST IOWA...


CITY           SKY/WX    TMP DP  RH WIND       PRES   REMARKS
WATERLOO       PTCLDY    38  36  92 E5        30.17S WCI  34
DUBUQUE        PTCLDY    40  36  86 E7        30.18S
DECORAH        CLOUDY    45  37  76 E8        30.18S
MASON CITY     CLOUDY    38  35  89 NE5       30.17F WCI  34
CHARLES CITY   CLOUDY    43  41  93 E6        30.18S
OELWEIN        PTCLDY    39  39 100 NE5       30.18S
$$

...ELSEWHERE IN IOWA...


CITY           SKY/WX    TMP DP  RH WIND       PRES   REMARKS
DES MOINES     CLOUDY    49  44  83 E8        30.11R
IOWA CITY      PTCLDY    41  38  89 NE6       30.17S
FORT DODGE     CLOUDY    45  39  81 E7        30.14R
MARSHALLTOWN   CLOUDY    42  40  92 E10       30.13F
CEDAR RAPIDS   PTCLDY    39  39 100 NE8       30.16R WCI  33
$$

...NORTHERN ILLINOIS...


CITY           SKY/WX    TMP DP  RH WIND       PRES   REMARKS
CHICAGO-OHARE  FOG       36  35  96 NE7       30.22F VSB 1   WCI  30
CHICAGO-MIDWAY CLOUDY    37  36  96 NE8       30.22F FOG     WCI  31
MOLINE         MOCLDY    42  38  85 E10       30.17R
ROCKFORD       PTCLDY    39  35  86 NE7       30.22F WCI  34
PEORIA         CLOUDY    42  39  89 NE15      30.16R
$$

NOTE: "FAIR" INDICATES FEW OR NO CLOUDS BELOW 12,000 FEET WITH NO
SIGNIFICANT WEATHER AND/OR OBSTRUCTIONS TO VISIBILITY. WIND
SPEEDS ARE IN MILES-PER-HOUR.




USA.gov is the U.S. government's official web portal to all federal, state and local government web resources and services.